Regional Weather Roundup
Issued by NWS

Home | Current Version | Previous Version | Graphics & Text | Print | Product List | Glossary On
Versions: 1 2 3 4 5 6 7 8 9 10 11 12 13 14 15 16 17 18 19 20 21 22 23 24 25 26 27 28 29 30 31 32 33 34 35 36 37 38 39 40 41 42 43 44 45 46 47 48 49 50
000
ASUS43 KMKX 052259
RWRWI

WISCONSIN REGIONAL WEATHER ROUNDUP
NATIONAL WEATHER SERVICE MILWAUKEE/SULLIVAN WI
500 PM CST THU MAR 05 2015

NOTE: "FAIR" INDICATES FEW OR NO CLOUDS BELOW 12,000 FEET WITH NO
SIGNIFICANT WEATHER AND/OR OBSTRUCTIONS TO VISIBILITY.

WIZ001-002-006>008-014>016-023>028-060000-
NORTHWEST WISCONSIN

CITY           SKY/WX    TMP DP  RH WIND       PRES   REMARKS
SUPERIOR ARPT  FAIR      15  -5  40 SW12      30.33F WCI   2
ASHLAND        CLEAR     14 -10  33 SW12G18   30.33F WCI   0
HAYWARD        CLEAR     11 -11  36 SW8       30.33F WCI  -1
SIREN          CLEAR     13  -6  42 SW9       30.37F WCI   0
CUMBERLAND     CLEAR     10  -8  44 SW8       30.36F WCI  -1
RICE LAKE      CLEAR     11  -6  46 S8        30.40F WCI  -1
CHETEK         CLEAR     10  -7  45 SW6       30.40S WCI   1
LADYSMITH      CLEAR     11 -10  38 SW9       30.38F WCI  -2
EAU CLAIRE     NOT AVBL
MENOMONIE      CLEAR     13  -6  42 SW9       30.43F WCI   0
NEW RICHMOND   CLEAR     14  -3  47 SW7       30.41S WCI   3
OSCEOLA        CLEAR     15  -2  47 SW8       30.43F WCI   4
$$

WIZ003>005-009-010-017-018-060000-
NORTH CENTRAL WISCONSIN

CITY           SKY/WX    TMP DP  RH WIND       PRES   REMARKS
MANITOWISH WTR CLEAR     11 -12  33 W9        30.26F WCI  -1
ARBOR VITAE    CLEAR     14 -11  32 SW12      30.27S WCI   0
WOODRUFF       CLEAR     14 -11  32 SW12      30.27S WCI   0
RHINELANDER    FAIR      11  -9  40 W9        30.29S WCI  -2
EAGLE RIVER    CLEAR     12 -13  31 W14       30.27R WCI  -4
LAND O LAKES   CLEAR     14 -12  31 SW6       30.26S WCI   5
PHILLIPS       CLEAR     10 -10  40 SW8       30.31S WCI  -3
TOMAHAWK       CLEAR     13 -13  31 CALM      30.32S
MEDFORD        CLEAR      7  -9  48 SW10      30.34F WCI  -8
MERRILL        CLEAR     10  -7  46 SW8       30.35S WCI  -2
$$

WIZ029-030-035-036-043>047-060000-
CENTRAL WISCONSIN

CITY           SKY/WX    TMP DP  RH WIND       PRES   REMARKS
WAUSAU         CLEAR      8  -7  50 W8        30.36F WCI  -4
MOSINEE        CLEAR      9  -8  47 W12       30.38F WCI  -6
MARSHFIELD     CLEAR     11  -7  44 W7        30.38S WCI   0
STEVENS POINT  CLEAR     10  -8  43 W7        30.40S WCI  -1
WAUPACA        CLEAR     18  -6  35 W6        30.42S WCI   9
WAUTOMA        NOT AVBL
WISC RAPIDS    CLEAR     14  -8  37 W7        30.42S WCI   4
CAMP DOUGLAS   NOT AVBL
$$

WIZ011>013-019>022-031-037>040-048>050-060000-
NORTHEAST WISCONSIN

CITY           SKY/WX    TMP DP  RH WIND       PRES   REMARKS
ANTIGO         CLEAR      8  -8  49 SW10      30.32S WCI  -7
SHAWANO        CLEAR     16  -7  36 SW12      30.41R WCI   2
OCONTO         CLEAR     15  -5  40 W10G16    30.40S WCI   2
STURGEON BAY   CLEAR     12  -6  44 SW12      30.40F WCI  -2
GREEN BAY      CLEAR     13  -5  44 W14       30.42S WCI  -2
MANITOWOC      NOT AVBL
APPLETON       CLEAR     14  -6  41 W9        30.41S WCI   2
CLINTONVILLE   CLEAR     14  -8  37 W9        30.41S WCI   2
OSHKOSH        CLEAR     15  -4  42 W6        30.42S WCI   6
$$

WIZ032>034-041-042-053>061-060000-
SOUTHWEST WISCONSIN

CITY           SKY/WX    TMP DP  RH WIND       PRES   REMARKS
LA CROSSE      CLEAR     15  -2  46 N7        30.47F WCI   5
SPARTA         CLEAR     14  -5  41 SW7       30.47S WCI   4
VIROQUA        CLEAR     12  -4  49 SW10      30.43S WCI  -2
BOSCOBEL       MIX PCPN  15  -5  40 W9        30.50S WCI   3
PRAIRIE DU CHI CLEAR     12  -5  47 W8        30.51S WCI   0
PLATTEVILLE    CLEAR     12  -4  50 W7        30.47S WCI   1
$$

WIZ056-057-062-063-064-067-068-060000-
SOUTH CENTRAL WISCONSIN

CITY           SKY/WX    TMP DP  RH WIND       PRES   REMARKS
REEDSBURG      CLEAR     14  -4  45 W7        30.44S WCI   4
BARABOO/DELLS  CLEAR     14  -6  41 W7        30.43S WCI   4
LONE ROCK      NOT AVBL
MINERAL POINT  CLEAR     14  -4  44 W10       30.44S WCI   1
MADISON        CLEAR     16  -5  39 W8        30.45S WCI   5
MIDDLETON      CLEAR     18  -5  36 SW7       30.45S WCI   8
WATERTOWN      CLEAR     14  -3  47 W5        30.45S WCI   6
MONROE         CLEAR     12   0  57 W12       30.46R WCI  -2
JANESVILLE     CLEAR     12  -6  44 W8        30.49R WCI   1
$$

WIZ051-052-058>065-066-070>072-060000-
SOUTHEAST WISCONSIN

CITY           SKY/WX    TMP DP  RH WIND       PRES   REMARKS
MILWAUKEE      CLEAR     16  -5  39 W7        30.47R WCI   6
WAUKESHA       CLEAR     12  -6  44 W12       30.46R WCI  -2
MILWAUKEE/TIMM CLEAR     14  -6  41 W9        30.47R WCI   2
RACINE         CLEAR     13  -6  42 SW7       30.49R WCI   3
BURLINGTON     CLEAR     11  -6  45 W7        30.47S WCI   1
KENOSHA        CLEAR     12  -5  46 W8        30.48R WCI   0
FOND DU LAC    CLEAR     15  -5  40 W10       30.43S WCI   2
SHEBOYGAN      CLEAR     13  -4  46 W8        30.44S WCI   2
WEST BEND      CLEAR     14  -6  41 W8        30.44R WCI   3
JUNEAU         CLEAR     14  -4  44 SW9       30.45S WCI   2
$$

LSZ147-162-060000-
LAKE SUPERIOR

STATION/POSITION TIME  TEMP    WIND        PRES    WAVE
                       AIR SEA DIR/SP/G            HT/PER
                 (UTC) (F)     (DEG/KT/KT) (MB)    (FT/S)
DEVILS ISLAND    2200   13     230/ 15/ 18 1028.3F
PORT WING        2200   17     210/  9/ 13 1027.1F
SAXON HARBOR     2200   17     220/  7/ 13 1027.4F
$$

LMZ867-665-643>646-060000-
LAKE MICHIGAN

STATION/POSITION TIME  TEMP    WIND        PRES    WAVE
                       AIR SEA DIR/SP/G            HT/PER
                 (UTC) (F)     (DEG/KT/KT) (MB)    (FT/S)
NORTHPORT PIER   2219   15     210/  4/ 10 1028.8S
KEWAUNEE LAKESHO 2200   14     260/  9/ 13 1029.3R
SHEBOYGAN LAKESH 2200   14     290/ 11/ 12 1032.8S
PORT WASHINGTON  2200   18     250/  4/ 11 1032.2
MILWAUKEE LAKESH 2200   14     290/  6/ 10   N/A
KENOSHA   LAKESH 2200   14     300/  5/ 11 1032.2S
$$

TC  - TEMPERATURE IN CELSIUS
VSB - VISIBILITY IN STATUTE MILES
WCI - WIND CHILL INDEX
HX  - HEAT INDEX




USA.gov is the U.S. government's official web portal to all federal, state and local government web resources and services.